[[{"header":{"parameterUnit":"m.s-1","parameterCategory":2,"la1":30.2991,"la2":30.254,"lo1":-89.0895,"lo2":-89.0444,"dy":0.0017,"dx":0.0017,"nx":28,"ny":28,"refTime":"2023-07-21T21:00:00:Z","depth":"0","parameterNumber":2,"parameterNumberName":"U-component_of_CURRENTS"},"data":[0,0,0,0,0,0,0,0,0,0,0,0,0,0,0,0,0,0,0,0,0,0,0,0,0,0,0,0,0,0,0,0,0,0,0,0,0,0,0,0,0,0,0,0,0,0,0,0,0,0,0,0,0,0,0,0,0,0,0.3274,0.3274,0,0.3297,0.3297,0.3297,0.3295,0.3295,0.3295,0.3295,0.3394,0.3396,0.3399,0,0,0,0,0,0,0,0,0,0,0,0,0,0.3325,0.3324,0.3274,0.3275,0.3275,0.3297,0.3297,0.3297,0.3295,0.3295,0.3295,0.3295,0.3393,0.3396,0.3399,0,0,0,0,0,0,0,0,0,0,0,0,0,0.3318,0.3323,0.3274,0.3279,0.328,0.3297,0.3297,0.3297,0.3295,0.3295,0.3295,0.3295,0.3392,0.3396,0.34,0.3425,0,0,0.3412,0.3414,0,0,0,0,0,0,0,0,0.3318,0.3315,0.3278,0.3279,0.328,0.3296,0.3352,0.3345,0.3295,0.3286,0.3295,0.3295,0.3371,0.3376,0.3375,0.343,0.3434,0.3412,0.3415,0.3416,0.3418,0,0,0,0,0,0,0,0.3318,0.3315,0.3279,0.3279,0.328,0.3315,0.3312,0.335,0.3327,0.3286,0.3287,0.3295,0.3371,0.3371,0.3377,0.3435,0.3412,0.3416,0.3418,0.342,0.3617,0.362,0,0,0,0,0,0,0.3317,0.3314,0.3279,0.328,0.3303,0.3313,0.331,0.3288,0.3325,0.3331,0.3295,0.3295,0.3364,0.3372,0.3381,0.3508,0.3416,0.342,0.3422,0.3615,0.3618,0.3621,0,0,0,0,0,0,0.3318,0.3312,0.3278,0.3303,0.3302,0.3312,0.3287,0.3289,0.3292,0.3331,0.3338,0.3298,0.3364,0.3375,0.3441,0.3509,0.3422,0.3426,0.3611,0.3616,0.362,0.3703,0,0,0,0,0,0,0.3318,0.3311,0.329,0.3302,0.33,0.3301,0.3288,0.3289,0.3299,0.3299,0.3337,0.3345,0.3365,0.3435,0.3445,0.3513,0.3429,0.3608,0.3613,0.3618,0.3697,0.371,0.3721,0,0,0,0,0,0.332,0.3286,0.3288,0.3284,0.327,0.3302,0.3305,0.3311,0.3299,0.331,0.3345,0.3344,0.3477,0.344,0.3451,0.3522,0.3605,0.3612,0.3618,0.3691,0.3707,0.372,0,0,0,0,0,0,0.3342,0.3284,0.3286,0.3249,0.3284,0.3303,0.33,0.3313,0.3343,0.3344,0.3372,0.3385,0.3474,0.3481,0.344,0.3596,0.3545,0.3553,0.3597,0.3612,0.3624,0.3575,0.3432,0,0,0,0,0,0.3327,0.3273,0.3275,0.327,0.326,0.3282,0.3291,0.3311,0.3342,0.3352,0.3381,0.343,0.3508,0.3543,0.3594,0.3668,0.3678,0.3724,0.3736,0.3746,0.3716,0.3829,0.3849,0.3642,0.3642,0.3642,0,0,0.3368,0.3312,0.3303,0.3269,0.3277,0.331,0.3285,0.3309,0.3363,0.3363,0.3423,0.3469,0.3536,0.3632,0.3673,0.3647,0.3811,0.3754,0.3763,0.3726,0.3838,0.3858,0.3876,0.3647,0.3646,0.3645,0,0,0.3372,0.3336,0.327,0.3308,0.3307,0.333,0.3339,0.3359,0.3373,0.3447,0.348,0.3548,0.364,0.3704,0.3753,0.3856,0.3871,0.3895,0.392,0.4033,0.405,0.4065,0.4099,0.4117,0.3902,0.3903,0.3903,0,0.3413,0.3342,0.3285,0.327,0.3326,0.3342,0.338,0.3409,0.3468,0.349,0.3479,0.3627,0.3675,0.3813,0.3853,0.3882,0.3925,0.3862,0.4048,0.4063,0.4077,0.4108,0.4127,0.3907,0.3907,0.3906,0.3906,0,0.3388,0.337,0.3357,0.3335,0.3388,0.3438,0.3488,0.3521,0.3543,0.358,0.3678,0.3735,0.3816,0.3871,0.3894,0.4037,0.4027,0.4051,0.4005,0.4103,0.4129,0.4147,0.3914,0.3913,0.3911,0.391,0,0,0.341,0.3332,0.3351,0.3353,0.344,0.3476,0.3569,0.3634,0.3662,0.3731,0.3784,0.3916,0.3912,0.3963,0.4012,0.4099,0.4239,0.4117,0.4121,0.4137,0.4452,0.4296,0.4299,0.4321,0.4325,0.4328,0.4427,0,0.3422,0.3358,0.337,0.3456,0.3446,0.3551,0.3632,0.3719,0.3759,0.3808,0.388,0.3946,0.3966,0.3998,0.4101,0.4197,0.429,0.4205,0.4362,0.4364,0.4207,0.4317,0.4163,0.4227,0.4444,0.4447,0.4449,0,0.3401,0.3358,0.3351,0.3437,0.3453,0.3537,0.3657,0.374,0.3835,0.3861,0.3942,0.3975,0.4099,0.4096,0.4305,0.426,0.4356,0.4423,0.443,0.4255,0.4242,0.4168,0.425,0.4136,0.4476,0.4474,0.4472,0,0.3341,0.3388,0.3352,0.3404,0.3476,0.353,0.363,0.374,0.378,0.3883,0.3901,0.4047,0.4089,0.426,0.4357,0.4368,0.4557,0.4599,0.4547,0.4535,0.4408,0.4377,0.4379,0.4766,0.4766,0.4766,0.4765,0,0.3294,0.3326,0.3311,0.3296,0.3355,0.3474,0.3538,0.3636,0.3745,0.3787,0.3907,0.3942,0.4139,0.4246,0.4379,0.4476,0.4588,0.4543,0.4564,0.4429,0.4401,0.4295,0.4307,0.4769,0.4768,0.4768,0.4767,0,0.3195,0.3182,0.3169,0.3227,0.3272,0.332,0.3487,0.3527,0.3642,0.3701,0.3734,0.3882,0.4015,0.4166,0.4399,0.4454,0.448,0.4609,0.4377,0.4367,0.4178,0.4202,0.4065,0.3983,0.4578,0.4575,0.4572,0,0.3113,0.3039,0.3069,0.3084,0.3107,0.3203,0.3268,0.3442,0.3494,0.3648,0.367,0.3796,0.3878,0.4104,0.422,0.439,0.4358,0.4328,0.4318,0.4127,0.4175,0.4032,0.3965,0.4199,0.4194,0.4189,0.4186,0,0.297,0.2951,0.2937,0.2929,0.2985,0.3048,0.317,0.3191,0.3375,0.3412,0.3506,0.359,0.3784,0.3853,0.4015,0.4128,0.4112,0.4237,0.4155,0.3951,0.3689,0.3631,0.4123,0.4146,0.415,0.4153,0.4155,0.4157,0.2909,0.2877,0.2819,0.2833,0.287,0.2892,0.2899,0.3006,0.3047,0.3088,0.3274,0.3315,0.3514,0.3713,0.3783,0.3761,0.3834,0.3738,0.3807,0.3691,0.3523,0.3854,0.3823,0.3825,0.3827,0.3828,0.383,0,0.283,0.279,0.2758,0.2745,0.2694,0.2765,0.2817,0.2781,0.2754,0.2852,0.2897,0.3011,0.31,0.3282,0.342,0.3376,0.3273,0.3315,0.3136,0.312,0.3526,0.3415,0.3153,0.3153,0.3153,0.3153,0.3153,0.3154,0.2801,0.2728,0.2689,0.2568,0.2538,0.2448,0.2433,0.2393,0.2429,0.2394,0.2422,0.2553,0.2903,0.3121,0.3148,0.31,0.2953,0.2787,0.2835,0.3181,0.3226,0.3269,0.3161,0.285,0.285,0.2256,0.2253,0.225]},{"header":{"parameterUnit":"m.s-1","parameterCategory":2,"la1":30.2991,"la2":30.254,"lo1":-89.0895,"lo2":-89.0444,"dy":0.0017,"dx":0.0017,"nx":28,"ny":28,"refTime":"2023-07-21T21:00:00:Z","depth":"0","parameterNumber":3,"parameterNumberName":"V-component_of_CURRENTS"},"data":[0,0,0,0,0,0,0,0,0,0,0,0,0,0,0,0,0,0,0,0,0,0,0,0,0,0,0,0,0,0,0,0,0,0,0,0,0,0,0,0,0,0,0,0,0,0,0,0,0,0,0,0,0,0,0,0,0,0,-0.0358,-0.0357,0,-0.0351,-0.0351,-0.0351,-0.0369,-0.037,-0.037,-0.037,-0.0355,-0.0354,-0.0354,0,0,0,0,0,0,0,0,0,0,0,0,0,-0.0416,-0.0415,-0.0358,-0.0357,-0.0357,-0.0351,-0.0351,-0.0351,-0.0369,-0.037,-0.037,-0.037,-0.0355,-0.0355,-0.0354,0,0,0,0,0,0,0,0,0,0,0,0,0,-0.0402,-0.0415,-0.0358,-0.0362,-0.0362,-0.0351,-0.0351,-0.0351,-0.0369,-0.037,-0.037,-0.037,-0.0355,-0.0355,-0.0354,-0.0342,0,0,-0.0351,-0.0351,0,0,0,0,0,0,0,0,-0.0403,-0.04,-0.0362,-0.0362,-0.0362,-0.0358,-0.0366,-0.0346,-0.0369,-0.0371,-0.037,-0.037,-0.0352,-0.0352,-0.0356,-0.0341,-0.0341,-0.0351,-0.035,-0.035,-0.035,0,0,0,0,0,0,0,-0.0404,-0.0401,-0.0359,-0.0362,-0.0361,-0.0374,-0.0373,-0.0363,-0.0363,-0.0371,-0.0371,-0.0364,-0.0353,-0.0356,-0.0355,-0.0341,-0.0351,-0.035,-0.035,-0.0349,-0.0311,-0.031,0,0,0,0,0,0,-0.0394,-0.0401,-0.0359,-0.0359,-0.0379,-0.0372,-0.0371,-0.0362,-0.0363,-0.0363,-0.0364,-0.0365,-0.0358,-0.0356,-0.0355,-0.0325,-0.035,-0.0349,-0.0349,-0.0311,-0.0311,-0.031,0,0,0,0,0,0,-0.0396,-0.0391,-0.036,-0.0377,-0.0373,-0.037,-0.0361,-0.0362,-0.0368,-0.0357,-0.0357,-0.0369,-0.0358,-0.0356,-0.0333,-0.0325,-0.0349,-0.0348,-0.0312,-0.0311,-0.031,-0.0275,0,0,0,0,0,0,-0.0397,-0.0391,-0.0391,-0.0376,-0.0372,-0.0352,-0.036,-0.0361,-0.0361,-0.0362,-0.0361,-0.036,-0.0358,-0.0334,-0.0332,-0.0324,-0.0347,-0.0312,-0.0311,-0.0311,-0.0276,-0.0273,-0.027,0,0,0,0,0,-0.0399,-0.037,-0.0391,-0.0386,-0.0368,-0.0352,-0.0352,-0.0354,-0.0361,-0.0362,-0.035,-0.036,-0.0328,-0.0333,-0.033,-0.0322,-0.0313,-0.0312,-0.0311,-0.0278,-0.0274,-0.027,0,0,0,0,0,0,-0.0392,-0.0369,-0.0391,-0.0358,-0.0365,-0.0353,-0.0332,-0.0354,-0.0349,-0.0344,-0.0346,-0.0343,-0.0323,-0.0326,-0.0332,-0.0309,-0.0326,-0.0324,-0.0302,-0.0297,-0.0294,-0.0274,-0.0347,0,0,0,0,0,-0.0393,-0.0377,-0.0368,-0.0356,-0.0335,-0.0344,-0.0339,-0.0353,-0.034,-0.034,-0.0339,-0.0331,-0.0317,-0.0309,-0.0301,-0.0283,-0.0285,-0.0279,-0.0276,-0.0273,-0.0256,-0.0252,-0.0247,-0.0306,-0.0306,-0.0306,0,0,-0.0397,-0.0378,-0.0376,-0.0356,-0.0343,-0.0327,-0.0341,-0.0325,-0.0327,-0.0336,-0.0319,-0.0318,-0.0309,-0.0288,-0.028,-0.0288,-0.0258,-0.0271,-0.0269,-0.0253,-0.0251,-0.0245,-0.024,-0.0306,-0.0306,-0.0306,0,0,-0.0366,-0.0361,-0.0326,-0.0328,-0.0312,-0.0313,-0.0311,-0.0303,-0.0302,-0.0293,-0.0297,-0.0284,-0.0271,-0.026,-0.0252,-0.0224,-0.0241,-0.0234,-0.0197,-0.0195,-0.019,-0.0185,-0.0185,-0.0181,-0.0232,-0.0232,-0.0232,0,-0.0368,-0.0333,-0.032,-0.0289,-0.0283,-0.0304,-0.0279,-0.0281,-0.0286,-0.0266,-0.0281,-0.0244,-0.0252,-0.0208,-0.0207,-0.0215,-0.0219,-0.0213,-0.019,-0.0185,-0.0181,-0.0182,-0.0178,-0.023,-0.023,-0.023,-0.0231,0,-0.0322,-0.0301,-0.0267,-0.0245,-0.0242,-0.0224,-0.0221,-0.0217,-0.022,-0.0225,-0.0185,-0.0185,-0.0159,-0.0172,-0.018,-0.0153,-0.0168,-0.0187,-0.0198,-0.0173,-0.0176,-0.0172,-0.0227,-0.0228,-0.0229,-0.0229,0,0,-0.0306,-0.0243,-0.0242,-0.0216,-0.0219,-0.0198,-0.0184,-0.0158,-0.0117,-0.0137,-0.0079,-0.0082,-0.0084,-0.0075,-0.0088,-0.0093,-0.0085,-0.0129,-0.013,-0.0125,-0.0081,-0.0092,-0.009,-0.0104,-0.0103,-0.0102,-0.0096,0,-0.0275,-0.0196,-0.0194,-0.0153,-0.0101,-0.0122,-0.0099,-0.0095,-0.0074,-0.0026,-0.0027,0.0019,-0.0046,-0.0018,-0.0038,-0.006,-0.0072,-0.0085,-0.0108,-0.0109,-0.0119,-0.0084,-0.0052,-0.0043,-0.0093,-0.0092,-0.0092,0,-0.0233,-0.0183,-0.0114,-0.0061,-0.0039,-0.0034,0.0024,0.0038,0.0081,0.0104,0.0131,0.0134,0.0142,0.0083,0.0046,0.0039,-0.0019,-0.0052,-0.0053,-0.0069,-0.0112,-0.0076,-0.0035,-0.0151,-0.0086,-0.0086,-0.0087,0,-0.0191,-0.013,-0.0064,-0.0058,-0.0006,0.0024,0.0045,0.0084,0.0134,0.0199,0.0257,0.0247,0.0277,0.0203,0.0118,0.0086,0.0076,0.0023,-0.0042,-0.0044,-0.002,-0.0022,-0.0087,-0.0008,-0.0008,-0.0008,-0.0008,0,-0.0143,-0.0098,-0.0033,0.0003,0.0072,0.0084,0.0167,0.0195,0.0261,0.0349,0.0334,0.0416,0.0307,0.0286,0.0174,0.0091,0.0115,-0.0017,-0.0035,-0.0009,-0.0009,-0.0114,-0.0188,-0.0008,-0.0008,-0.0008,-0.0008,0,-0.0102,-0.0064,0.0014,0.0083,0.0106,0.0153,0.0229,0.0304,0.0357,0.0478,0.0509,0.0545,0.0524,0.0408,0.0308,0.0187,0.0042,0.0054,0.0091,0.0077,-0.0112,-0.0185,-0.0254,-0.028,-0.0014,-0.0014,-0.0015,0,-0.0077,-0.0016,0.0073,0.012,0.0153,0.0224,0.0289,0.0343,0.0431,0.0572,0.0651,0.0675,0.0717,0.0571,0.0367,0.0188,0.0062,0.0086,0.0021,-0.01,-0.0195,-0.0251,-0.0272,0.0064,0.0064,0.0065,0.0065,0,-0.0024,0.0017,0.0083,0.0188,0.0258,0.0347,0.0448,0.0524,0.0622,0.073,0.0881,0.0931,0.0812,0.0669,0.0416,0.028,0.0021,0.0087,-0.0038,-0.0132,-0.0194,-0.0234,0.0027,0.0069,0.0069,0.0068,0.0068,0.0068,-0.0002,0.0048,0.0154,0.025,0.0345,0.0483,0.0567,0.0689,0.0832,0.1005,0.1031,0.1134,0.0926,0.0599,0.0397,0.005,0.0026,-0.0067,-0.0142,-0.0185,-0.0221,0.0045,0.006,0.0059,0.0059,0.0059,0.0058,0,0.0018,0.0104,0.0214,0.0342,0.0477,0.0517,0.069,0.0788,0.0966,0.1115,0.1222,0.1212,0.0914,0.0604,0.0137,-0.0125,-0.0214,-0.027,-0.0341,-0.035,-0.0104,-0.0111,-0.0132,-0.0132,-0.0132,-0.0132,-0.0132,-0.0132,0.0042,0.0148,0.0228,0.0445,0.0546,0.0715,0.0817,0.096,0.1094,0.1293,0.1386,0.144,0.1329,0.038,-0.0195,-0.0344,-0.0525,-0.0574,-0.0666,-0.0516,-0.0503,-0.0491,-0.0516,-0.0621,-0.0621,-0.0851,-0.0854,-0.0856]}],[{"header":{"parameterUnit":"m.s-1","parameterCategory":2,"la1":30.2991,"la2":30.254,"lo1":-89.0895,"lo2":-89.0444,"dy":0.0017,"dx":0.0017,"nx":28,"ny":28,"refTime":"2023-07-21T21:00:00:Z","depth":"2","parameterNumber":2,"parameterNumberName":"U-component_of_CURRENTS"},"data":[0,0,0,0,0,0,0,0,0,0,0,0,0,0,0,0,0,0,0,0,0,0,0,0,0,0,0,0,0,0,0,0,0,0,0,0,0,0,0,0,0,0,0,0,0,0,0,0,0,0,0,0,0,0,0,0,0,0,0.2513,0.2512,0,0.2417,0.2415,0.2414,0.241,0.2412,0.2413,0.2414,0.2541,0.2543,0.2545,0,0,0,0,0,0,0,0,0,0,0,0,0,0.2068,0.208,0.2513,0.2512,0.2511,0.2417,0.2415,0.2414,0.241,0.2412,0.2413,0.2415,0.254,0.2543,0.2545,0,0,0,0,0,0,0,0,0,0,0,0,0,0.2145,0.2084,0.2513,0.25,0.2498,0.2417,0.2415,0.2413,0.241,0.2412,0.2414,0.2416,0.2539,0.2542,0.2545,0.2522,0,0,0.2555,0.2556,0,0,0,0,0,0,0,0,0.2141,0.2161,0.2503,0.2501,0.2499,0.243,0.2304,0.2462,0.2409,0.244,0.2414,0.2417,0.2525,0.2529,0.2499,0.2528,0.2534,0.2555,0.2557,0.2558,0.2559,0,0,0,0,0,0,0,0.2137,0.2161,0.2472,0.2502,0.2499,0.2284,0.2303,0.233,0.2474,0.2438,0.2438,0.2431,0.2525,0.2496,0.2503,0.2536,0.2555,0.2558,0.256,0.2561,0.2711,0.2713,0,0,0,0,0,0,0.2188,0.2162,0.2475,0.247,0.2324,0.2294,0.2314,0.2448,0.2469,0.2473,0.2429,0.2431,0.249,0.2499,0.2508,0.267,0.2558,0.2561,0.2563,0.2709,0.2712,0.2714,0,0,0,0,0,0,0.2181,0.2222,0.2479,0.2304,0.2323,0.2304,0.245,0.2445,0.2438,0.246,0.2469,0.2432,0.2492,0.2503,0.2595,0.2668,0.2563,0.2565,0.2707,0.271,0.2713,0.2875,0,0,0,0,0,0,0.2171,0.2224,0.23,0.2315,0.2335,0.2409,0.2448,0.2441,0.243,0.2432,0.2465,0.2477,0.2494,0.2591,0.2598,0.2671,0.2568,0.2704,0.2708,0.2712,0.2867,0.2884,0.2898,0,0,0,0,0,0.2158,0.2227,0.2309,0.2342,0.2462,0.2406,0.2394,0.2378,0.2429,0.2389,0.2487,0.2477,0.262,0.2596,0.2604,0.2679,0.2702,0.2707,0.2712,0.286,0.288,0.2897,0,0,0,0,0,0,0.2064,0.2235,0.2323,0.2451,0.2434,0.2407,0.2374,0.2387,0.242,0.2475,0.2512,0.2529,0.2652,0.2621,0.2592,0.2728,0.2655,0.2662,0.2766,0.2785,0.28,0.273,0.257,0,0,0,0,0,0.2096,0.2232,0.2292,0.2399,0.2399,0.2404,0.2379,0.2393,0.2428,0.2442,0.2502,0.2577,0.2665,0.2692,0.2752,0.2805,0.281,0.2852,0.2868,0.2881,0.2827,0.29,0.2918,0.273,0.273,0.273,0,0,0.2101,0.2207,0.2289,0.2387,0.2397,0.2373,0.2394,0.2386,0.2423,0.246,0.2563,0.2651,0.27,0.2804,0.2848,0.279,0.2962,0.2887,0.2899,0.2836,0.2907,0.2925,0.2942,0.2733,0.2732,0.2732,0,0,0.2102,0.2272,0.2341,0.2329,0.2357,0.2355,0.2363,0.2388,0.2454,0.2569,0.2636,0.275,0.2864,0.2902,0.2943,0.3054,0.3066,0.3087,0.3084,0.316,0.3176,0.3189,0.333,0.3354,0.3063,0.3064,0.3064,0,0.2046,0.222,0.2316,0.2321,0.2293,0.2358,0.2324,0.2399,0.247,0.2559,0.2634,0.2858,0.2911,0.3012,0.3064,0.3092,0.3149,0.3027,0.3182,0.3194,0.3205,0.3344,0.3369,0.3072,0.3071,0.307,0.307,0,0.2111,0.2176,0.2185,0.2275,0.2243,0.2223,0.2313,0.2407,0.2551,0.2638,0.2847,0.2957,0.307,0.3125,0.3143,0.3236,0.3268,0.3229,0.3139,0.3234,0.3376,0.3399,0.3084,0.3081,0.3079,0.3077,0,0,0.2085,0.2202,0.2174,0.2223,0.2211,0.2218,0.2314,0.2404,0.2563,0.2719,0.2886,0.3055,0.3143,0.3182,0.3231,0.3267,0.346,0.3269,0.3269,0.3415,0.3693,0.33,0.3288,0.346,0.3463,0.3464,0.3802,0,0.2048,0.2073,0.2105,0.2099,0.2122,0.2181,0.2269,0.2399,0.2593,0.2801,0.2964,0.3157,0.316,0.3274,0.3315,0.3441,0.3508,0.3374,0.3566,0.3572,0.3214,0.3292,0.3055,0.3293,0.3824,0.3828,0.3831,0,0.2107,0.2089,0.2075,0.2134,0.214,0.2168,0.2351,0.2459,0.2733,0.2878,0.3056,0.3208,0.335,0.334,0.356,0.3488,0.3579,0.3647,0.3662,0.3216,0.3211,0.3259,0.3313,0.3868,0.3865,0.3862,0.386,0,0.2156,0.21,0.2106,0.2099,0.2145,0.2227,0.2313,0.2537,0.2679,0.297,0.309,0.3289,0.3443,0.3566,0.3696,0.3683,0.3905,0.3927,0.3661,0.3643,0.3418,0.3366,0.4031,0.4031,0.403,0.4029,0.4028,0,0.2159,0.2171,0.2176,0.2188,0.2249,0.2317,0.2496,0.2634,0.2839,0.2992,0.3163,0.3283,0.3494,0.3645,0.3752,0.3745,0.3974,0.3642,0.3661,0.3472,0.3424,0.3858,0.3833,0.4042,0.4039,0.4036,0.4034,0,0.2228,0.2244,0.2277,0.2283,0.232,0.2417,0.2563,0.2718,0.2889,0.3091,0.317,0.3354,0.3499,0.3643,0.3863,0.3779,0.3848,0.3775,0.3538,0.3507,0.3568,0.3549,0.3598,0.3586,0.3576,0.3567,0.356,0,0.2246,0.2285,0.2321,0.2346,0.2357,0.2492,0.2596,0.2765,0.2893,0.3112,0.3191,0.3353,0.34,0.3515,0.3451,0.3513,0.364,0.3223,0.3047,0.3488,0.3507,0.3504,0.3498,0.2963,0.2952,0.2943,0.2935,0,0.22,0.2278,0.2274,0.2356,0.2461,0.25,0.2674,0.2731,0.2935,0.3026,0.3146,0.3199,0.3228,0.3078,0.2979,0.2978,0.3176,0.301,0.3621,0.2969,0.2875,0.2896,0.2917,0.2851,0.286,0.2866,0.287,0.2874,0.2174,0.2209,0.23,0.235,0.243,0.2487,0.2515,0.2623,0.2726,0.2776,0.2946,0.2876,0.2812,0.2487,0.2443,0.2393,0.2579,0.248,0.2521,0.2568,0.2292,0.2167,0.1973,0.1977,0.1979,0.1982,0.1984,0,0.2121,0.2238,0.228,0.2373,0.2362,0.2447,0.2517,0.2459,0.2464,0.2519,0.2532,0.2202,0.2025,0.2043,0.1841,0.1738,0.1878,0.1662,0.1882,0.1959,0.2029,0.1737,0.1268,0.1266,0.1265,0.1264,0,0,0.2196,0.2263,0.2307,0.2293,0.2293,0.2243,0.2224,0.2114,0.2087,0.1946,0.1877,0.1893,0.1923,0.156,0.1473,0.1377,0.1688,0.1319,0.1881,0.2217,0.2287,0.2458,0.2081,0,0,0,0,0]},{"header":{"parameterUnit":"m.s-1","parameterCategory":2,"la1":30.2991,"la2":30.254,"lo1":-89.0895,"lo2":-89.0444,"dy":0.0017,"dx":0.0017,"nx":28,"ny":28,"refTime":"2023-07-21T21:00:00:Z","depth":"2","parameterNumber":3,"parameterNumberName":"V-component_of_CURRENTS"},"data":[0,0,0,0,0,0,0,0,0,0,0,0,0,0,0,0,0,0,0,0,0,0,0,0,0,0,0,0,0,0,0,0,0,0,0,0,0,0,0,0,0,0,0,0,0,0,0,0,0,0,0,0,0,0,0,0,0,0,-0.0121,-0.0121,0,-0.0117,-0.0117,-0.0118,-0.0166,-0.0167,-0.0168,-0.0168,-0.0194,-0.0194,-0.0194,0,0,0,0,0,0,0,0,0,0,0,0,0,-0.0034,-0.0037,-0.0121,-0.0121,-0.012,-0.0117,-0.0117,-0.0118,-0.0166,-0.0167,-0.0168,-0.0169,-0.0194,-0.0194,-0.0194,0,0,0,0,0,0,0,0,0,0,0,0,0,-0.0063,-0.0038,-0.0121,-0.0138,-0.0139,-0.0117,-0.0117,-0.0118,-0.0166,-0.0167,-0.0168,-0.0169,-0.0194,-0.0194,-0.0194,-0.0174,0,0,-0.0194,-0.0194,0,0,0,0,0,0,0,0,-0.0061,-0.0067,-0.0136,-0.0137,-0.0138,-0.0137,-0.0095,-0.0136,-0.0166,-0.0164,-0.0168,-0.017,-0.0172,-0.0174,-0.0181,-0.0176,-0.0177,-0.0194,-0.0194,-0.0194,-0.0194,0,0,0,0,0,0,0,-0.0059,-0.0066,-0.0127,-0.0135,-0.0136,-0.0098,-0.0105,-0.0103,-0.0168,-0.0164,-0.0166,-0.0153,-0.0174,-0.0181,-0.0182,-0.0177,-0.0194,-0.0194,-0.0194,-0.0194,-0.0197,-0.0197,0,0,0,0,0,0,-0.0052,-0.0066,-0.0127,-0.0126,-0.0093,-0.0099,-0.0107,-0.0142,-0.0168,-0.017,-0.0152,-0.0155,-0.018,-0.0182,-0.0183,-0.0169,-0.0194,-0.0194,-0.0194,-0.0197,-0.0197,-0.0197,0,0,0,0,0,0,-0.0051,-0.0059,-0.0127,-0.0086,-0.0092,-0.01,-0.0138,-0.0141,-0.0155,-0.0157,-0.0162,-0.0162,-0.0181,-0.0183,-0.0182,-0.017,-0.0194,-0.0194,-0.0197,-0.0197,-0.0197,-0.0135,0,0,0,0,0,0,-0.0049,-0.006,-0.009,-0.0088,-0.0093,-0.0106,-0.0136,-0.014,-0.0142,-0.0146,-0.0167,-0.017,-0.0182,-0.0181,-0.0182,-0.017,-0.0194,-0.0197,-0.0197,-0.0197,-0.0137,-0.0133,-0.013,0,0,0,0,0,-0.0047,-0.0036,-0.0093,-0.0099,-0.0134,-0.0104,-0.0104,-0.0116,-0.0141,-0.0136,-0.0157,-0.017,-0.0183,-0.0181,-0.0181,-0.017,-0.0197,-0.0197,-0.0197,-0.0139,-0.0134,-0.013,0,0,0,0,0,0,0.0015,-0.0041,-0.0101,-0.0108,-0.0119,-0.0109,-0.0084,-0.0115,-0.0129,-0.0139,-0.016,-0.0163,-0.0164,-0.0176,-0.0174,-0.0175,-0.0196,-0.0196,-0.0152,-0.0147,-0.0143,-0.0103,-0.0194,0,0,0,0,0,0.0002,-0.005,-0.0064,-0.0089,-0.007,-0.0094,-0.0087,-0.0109,-0.0111,-0.012,-0.014,-0.016,-0.0162,-0.0162,-0.0174,-0.0161,-0.017,-0.016,-0.0156,-0.0153,-0.0123,-0.013,-0.0123,-0.0198,-0.0198,-0.0198,0,0,0.0009,-0.0026,-0.006,-0.0086,-0.0087,-0.0041,-0.0092,-0.0075,-0.0073,-0.0117,-0.0118,-0.0147,-0.0159,-0.0153,-0.0154,-0.016,-0.0141,-0.0153,-0.0149,-0.0121,-0.0129,-0.0122,-0.0115,-0.0198,-0.0198,-0.0198,0,0,0.0044,-0.0017,-0.0025,-0.0012,-0.0017,-0.0015,-0.0009,-0.0016,-0.0048,-0.006,-0.0091,-0.0105,-0.0123,-0.0121,-0.0121,-0.0101,-0.0126,-0.0121,-0.0058,-0.0066,-0.0059,-0.0053,-0.007,-0.0066,-0.0113,-0.0113,-0.0113,0,0.0074,0.0038,-0.0013,0.0027,0.0059,0.0008,0.0064,0.0038,0.0009,-0.0008,-0.0054,-0.0075,-0.01,-0.006,-0.0063,-0.0087,-0.0102,-0.007,-0.0058,-0.0052,-0.0047,-0.0066,-0.0062,-0.011,-0.011,-0.0111,-0.0111,0,0.0102,0.0107,0.014,0.0138,0.0165,0.0209,0.0194,0.0168,0.0113,0.008,0.0059,0.0017,0.001,-0.0011,-0.0029,0.0,-0.0027,-0.0056,-0.0062,-0.0035,-0.0058,-0.0055,-0.0106,-0.0107,-0.0108,-0.0109,0,0,0.0137,0.015,0.0176,0.0191,0.0232,0.0263,0.0276,0.028,0.0276,0.0209,0.0218,0.0181,0.0134,0.0132,0.0095,0.0089,0.009,0.0037,0.0035,0.0035,0.0067,0.0072,0.0075,0.0061,0.0062,0.0063,0.0031,0,0.0195,0.0274,0.0271,0.0367,0.042,0.0403,0.0431,0.0408,0.0353,0.0341,0.0279,0.0271,0.0196,0.0185,0.017,0.011,0.0104,0.0102,0.003,0.0028,0.0042,0.0081,0.0031,0.0001,0.0034,0.0034,0.0035,0,0.0223,0.0286,0.0378,0.0453,0.0485,0.0521,0.0547,0.0548,0.0516,0.0481,0.0455,0.0401,0.0389,0.0311,0.0242,0.0241,0.0169,0.0118,0.0114,0.011,0.0041,-0.0019,0.0005,0.0039,0.0039,0.0039,0.0038,0,0.0227,0.0358,0.0421,0.0458,0.0544,0.0556,0.058,0.0567,0.0565,0.0552,0.0569,0.0528,0.0504,0.0422,0.0295,0.0265,0.0221,0.0159,0.0105,0.0103,0.0046,0.0038,0.0132,0.0132,0.0132,0.0132,0.0132,0,0.0266,0.0339,0.0418,0.046,0.0539,0.0575,0.0608,0.0614,0.0638,0.0679,0.0628,0.0669,0.0529,0.0475,0.0352,0.0247,0.0257,0.0143,0.011,0.0063,0.0057,0.0079,0.0074,0.0131,0.0131,0.0132,0.0132,0,0.0253,0.0299,0.0377,0.0489,0.0514,0.0549,0.0615,0.065,0.0676,0.0731,0.0743,0.0756,0.0698,0.0564,0.0435,0.0325,0.0221,0.0184,0.0139,0.0103,0.0088,0.0086,0.0115,0.0115,0.0115,0.0116,0.0116,0,0.0246,0.028,0.0379,0.0425,0.047,0.0529,0.0577,0.063,0.0684,0.0794,0.0851,0.0834,0.0846,0.0675,0.0467,0.0277,0.0257,0.0127,0.0072,0.013,0.0094,0.0091,0.0088,-0.0002,-0.0002,-0.0003,-0.0004,0,0.0276,0.0284,0.0354,0.0428,0.048,0.0579,0.0654,0.0715,0.081,0.0892,0.1022,0.1043,0.089,0.0689,0.0441,0.0306,0.015,0.011,0.0189,0.0026,0.0021,-0.0014,-0.0014,-0.001,-0.0009,-0.0009,-0.0008,-0.0008,0.0273,0.0304,0.036,0.0445,0.0524,0.0653,0.0723,0.0844,0.096,0.1101,0.1117,0.1141,0.0901,0.0571,0.0355,0.0126,0.0139,0.0023,0.0024,0.0026,0.0034,0.0032,0.0003,0.0003,0.0004,0.0004,0.0005,0,0.0288,0.0316,0.0395,0.0487,0.0609,0.0647,0.0812,0.0908,0.1066,0.1149,0.1222,0.1005,0.0786,0.0547,0.0183,-0.0014,-0.005,-0.0068,-0.0101,-0.0095,-0.0089,-0.0088,-0.0151,-0.0152,-0.0152,-0.0152,0,0,0.0268,0.0325,0.0377,0.0556,0.0644,0.0802,0.0904,0.1039,0.1129,0.1216,0.1197,0.1129,0.0833,0.0534,0.024,0.0047,0.0034,0.0015,0.015,0.0149,0.0158,-0.0038,-0.0029,0,0,0,0,0]}],[{"header":{"parameterUnit":"m.s-1","parameterCategory":2,"la1":30.2991,"la2":30.254,"lo1":-89.0895,"lo2":-89.0444,"dy":0.0017,"dx":0.0017,"nx":28,"ny":28,"refTime":"2023-07-21T21:00:00:Z","depth":"4","parameterNumber":2,"parameterNumberName":"U-component_of_CURRENTS"},"data":[0,0,0,0,0,0,0,0,0,0,0,0,0,0,0,0,0,0,0,0,0,0,0,0,0,0,0,0,0,0,0,0,0,0,0,0,0,0,0,0,0,0,0,0,0,0,0,0,0,0,0,0,0,0,0,0,0,0,-0.0541,-0.0542,0,-0.0602,-0.0602,-0.0602,-0.0665,-0.0667,-0.0668,-0.067,-0.0994,-0.1001,-0.1008,0,0,0,0,0,0,0,0,0,0,0,0,0,-0.0475,-0.0475,-0.054,-0.0542,-0.0544,-0.0602,-0.0602,-0.0602,-0.0665,-0.0667,-0.0669,-0.067,-0.0992,-0.1,-0.1009,0,0,0,0,0,0,0,0,0,0,0,0,0,-0.0508,-0.0475,-0.054,-0.0588,-0.0594,-0.0602,-0.0602,-0.0602,-0.0664,-0.0667,-0.0669,-0.0671,-0.0989,-0.0999,-0.101,-0.1027,0,0,-0.1043,-0.1047,0,0,0,0,0,0,0,0,-0.0506,-0.051,-0.0579,-0.0585,-0.0591,-0.0636,-0.0698,-0.076,-0.0664,-0.0629,-0.067,-0.0673,-0.0902,-0.092,-0.0911,-0.1042,-0.1056,-0.1044,-0.105,-0.1055,-0.1058,0,0,0,0,0,0,0,-0.0504,-0.0508,-0.0556,-0.0581,-0.0588,-0.0606,-0.0613,-0.0708,-0.0749,-0.0632,-0.0639,-0.0658,-0.0907,-0.09,-0.092,-0.1061,-0.1043,-0.1053,-0.1059,-0.1064,-0.1328,-0.1328,0,0,0,0,0,0,-0.0511,-0.0505,-0.0555,-0.0559,-0.0563,-0.0606,-0.0613,-0.0612,-0.0743,-0.0765,-0.0656,-0.0661,-0.088,-0.0907,-0.0932,-0.1049,-0.1055,-0.1065,-0.1071,-0.1327,-0.1328,-0.1328,0,0,0,0,0,0,-0.0508,-0.0513,-0.0552,-0.0542,-0.0549,-0.0605,-0.0603,-0.0612,-0.0653,-0.076,-0.0786,-0.0694,-0.0883,-0.0917,-0.1059,-0.106,-0.1069,-0.1079,-0.1326,-0.1327,-0.1328,-0.1229,0,0,0,0,0,0,-0.0506,-0.0511,-0.0537,-0.0541,-0.055,-0.057,-0.0602,-0.0612,-0.0662,-0.067,-0.0801,-0.083,-0.0888,-0.1042,-0.1069,-0.1075,-0.1087,-0.1325,-0.1327,-0.1328,-0.1231,-0.1226,-0.1222,0,0,0,0,0,-0.0503,-0.0521,-0.0537,-0.0545,-0.0574,-0.0571,-0.0576,-0.0619,-0.0662,-0.0667,-0.0777,-0.0829,-0.1067,-0.1052,-0.1084,-0.1092,-0.1325,-0.1326,-0.1328,-0.1233,-0.1227,-0.1222,0,0,0,0,0,0,-0.0509,-0.053,-0.0548,-0.0574,-0.0581,-0.0586,-0.0611,-0.0639,-0.0718,-0.076,-0.0856,-0.0892,-0.101,-0.1073,-0.1053,-0.117,-0.1197,-0.1205,-0.1115,-0.111,-0.1105,-0.107,-0.1096,0,0,0,0,0,-0.052,-0.0554,-0.0549,-0.0585,-0.0576,-0.0599,-0.0619,-0.0644,-0.0705,-0.0741,-0.0834,-0.094,-0.1026,-0.109,-0.1177,-0.1258,-0.1281,-0.1279,-0.1274,-0.127,-0.1263,-0.1315,-0.1313,-0.1333,-0.1333,-0.1333,0,0,-0.0533,-0.0562,-0.0578,-0.0592,-0.0599,-0.0612,-0.0615,-0.0646,-0.0695,-0.0773,-0.0888,-0.0945,-0.1048,-0.1125,-0.1181,-0.1189,-0.1267,-0.1271,-0.1266,-0.1262,-0.1316,-0.1314,-0.1312,-0.1334,-0.1334,-0.1333,0,0,-0.058,-0.0589,-0.0622,-0.062,-0.065,-0.0656,-0.0673,-0.0689,-0.0727,-0.0818,-0.0884,-0.0952,-0.1091,-0.1139,-0.1188,-0.1221,-0.1246,-0.1236,-0.1183,-0.1233,-0.1231,-0.123,-0.1205,-0.1203,-0.1226,-0.1226,-0.1226,0,-0.0603,-0.0636,-0.0631,-0.0653,-0.0676,-0.0681,-0.0708,-0.0731,-0.0811,-0.0856,-0.0862,-0.1021,-0.1096,-0.1183,-0.1152,-0.1211,-0.1206,-0.119,-0.1223,-0.1223,-0.1223,-0.1199,-0.1198,-0.1221,-0.1222,-0.1222,-0.1223,0,-0.0648,-0.0683,-0.0692,-0.0732,-0.0754,-0.0767,-0.0788,-0.0834,-0.0881,-0.0907,-0.0995,-0.1046,-0.1117,-0.1137,-0.1144,-0.1173,-0.1153,-0.1212,-0.1226,-0.1214,-0.119,-0.119,-0.1215,-0.1216,-0.1218,-0.1219,0,0,-0.0652,-0.0714,-0.072,-0.0754,-0.0791,-0.0808,-0.0886,-0.0935,-0.0999,-0.1024,-0.1085,-0.1135,-0.1097,-0.1144,-0.1146,-0.1159,-0.1114,-0.1144,-0.1148,-0.1096,-0.1147,-0.0888,-0.0864,-0.1161,-0.1162,-0.1162,-0.1109,0,-0.0683,-0.0753,-0.0786,-0.0857,-0.0868,-0.0907,-0.0978,-0.1042,-0.1083,-0.1134,-0.1141,-0.1174,-0.1118,-0.1098,-0.1102,-0.1135,-0.1117,-0.1118,-0.1187,-0.1188,-0.0942,-0.0857,-0.1165,-0.1109,-0.1109,-0.1109,-0.1109,0,-0.0699,-0.0746,-0.0821,-0.0915,-0.0924,-0.0972,-0.1078,-0.1129,-0.1194,-0.1209,-0.1203,-0.1196,-0.1164,-0.1129,-0.1127,-0.1116,-0.1093,-0.1112,-0.1113,-0.0908,-0.0929,-0.1141,-0.111,-0.111,-0.111,-0.111,-0.111,0,-0.069,-0.0772,-0.0849,-0.0866,-0.0963,-0.1016,-0.1056,-0.1145,-0.1177,-0.1194,-0.119,-0.1199,-0.1139,-0.1157,-0.1087,-0.1105,-0.1098,-0.1167,-0.0922,-0.0904,-0.1204,-0.1207,-0.1174,-0.1174,-0.1174,-0.1174,-0.1174,0,-0.068,-0.0746,-0.0839,-0.0858,-0.0924,-0.0998,-0.1061,-0.1102,-0.1154,-0.1109,-0.1155,-0.1074,-0.1132,-0.111,-0.1101,-0.0945,-0.1098,-0.0865,-0.0864,-0.1157,-0.1156,-0.12,-0.1204,-0.1172,-0.1172,-0.1173,-0.1173,0,-0.066,-0.0726,-0.0807,-0.0903,-0.091,-0.0946,-0.0987,-0.1017,-0.1063,-0.0996,-0.0961,-0.097,-0.0838,-0.0912,-0.0921,-0.089,-0.0853,-0.0777,-0.101,-0.1034,-0.0626,-0.0627,-0.0498,-0.0488,-0.048,-0.0473,-0.0467,0,-0.0654,-0.071,-0.0798,-0.0786,-0.0813,-0.0844,-0.0844,-0.092,-0.0882,-0.0847,-0.0761,-0.0684,-0.0629,-0.0473,-0.0564,-0.0551,-0.0545,-0.0568,-0.063,-0.0539,-0.0554,-0.0568,-0.0579,-0.0454,-0.0452,-0.045,-0.0448,0,-0.0654,-0.0724,-0.0758,-0.073,-0.0722,-0.0698,-0.0654,-0.0635,-0.0633,-0.069,-0.0455,-0.0387,-0.0245,-0.0231,-0.0223,-0.0233,-0.0595,-0.0482,-0.0502,-0.0559,-0.0485,-0.0511,-0.0532,-0.0419,-0.0423,-0.0426,-0.0427,0,-0.0658,-0.0662,-0.0704,-0.0669,-0.0632,-0.0526,-0.0543,-0.0414,-0.04,-0.0333,-0.0203,-0.0141,-0.0121,-0.0052,-0.0041,-0.0019,-0.0019,-0.0086,-0.0126,-0.0159,-0.0076,0.0066,0.0352,0,0,0,0,0,-0.0603,-0.0607,-0.0611,-0.0559,-0.0518,-0.047,-0.0399,-0.0413,-0.0384,-0.0145,-0.017,0.0018,0.0134,0.0122,0.0218,0.0054,-0.0095,0.0156,-0.0212,-0.0259,-0.0292,-0.0229,0,0,0,0,0,0,-0.0575,-0.0594,-0.0603,-0.0479,-0.0393,-0.0324,-0.0266,-0.0246,-0.0104,-0.0059,0.0013,0.0063,0.0145,0.0124,0.0238,0.0233,0.0016,0.0189,0.0191,-0.024,-0.027,-0.0297,-0.0243,0,0,0,0,0]},{"header":{"parameterUnit":"m.s-1","parameterCategory":2,"la1":30.2991,"la2":30.254,"lo1":-89.0895,"lo2":-89.0444,"dy":0.0017,"dx":0.0017,"nx":28,"ny":28,"refTime":"2023-07-21T21:00:00:Z","depth":"4","parameterNumber":3,"parameterNumberName":"V-component_of_CURRENTS"},"data":[0,0,0,0,0,0,0,0,0,0,0,0,0,0,0,0,0,0,0,0,0,0,0,0,0,0,0,0,0,0,0,0,0,0,0,0,0,0,0,0,0,0,0,0,0,0,0,0,0,0,0,0,0,0,0,0,0,0,0.0556,0.0557,0,0.059,0.0589,0.0589,0.0691,0.0694,0.0696,0.0699,0.0681,0.0678,0.0675,0,0,0,0,0,0,0,0,0,0,0,0,0,0.0513,0.0513,0.0556,0.0557,0.0558,0.059,0.0589,0.0589,0.069,0.0694,0.0697,0.07,0.0682,0.0678,0.0674,0,0,0,0,0,0,0,0,0,0,0,0,0,0.0532,0.0513,0.0556,0.0617,0.0623,0.059,0.0589,0.0589,0.069,0.0694,0.0698,0.0702,0.0683,0.0678,0.0674,0.0561,0,0,0.066,0.0658,0,0,0,0,0,0,0,0,0.0531,0.0532,0.0607,0.0612,0.0619,0.0646,0.0568,0.0579,0.0688,0.0658,0.0699,0.0704,0.0665,0.0662,0.0651,0.056,0.0559,0.0659,0.0656,0.0654,0.0653,0,0,0,0,0,0,0,0.0529,0.0531,0.0563,0.0607,0.0615,0.062,0.0627,0.057,0.0631,0.0661,0.067,0.0682,0.0668,0.0655,0.0651,0.0559,0.0659,0.0655,0.0652,0.065,0.0527,0.0527,0,0,0,0,0,0,0.0536,0.053,0.0562,0.0565,0.0591,0.0618,0.0626,0.0628,0.0634,0.0641,0.0678,0.0687,0.0661,0.0657,0.0651,0.0589,0.0654,0.065,0.0647,0.0528,0.0527,0.0527,0,0,0,0,0,0,0.0535,0.0538,0.0561,0.0554,0.0558,0.0616,0.0616,0.0627,0.0677,0.0649,0.0655,0.0727,0.0664,0.0658,0.0631,0.0587,0.0648,0.0644,0.0528,0.0527,0.0527,0.0418,0,0,0,0,0,0,0.0533,0.0537,0.0553,0.0554,0.0559,0.0559,0.0613,0.0624,0.0677,0.069,0.069,0.069,0.0667,0.0638,0.0627,0.0581,0.064,0.0529,0.0528,0.0527,0.0422,0.0414,0.0406,0,0,0,0,0,0.0531,0.0545,0.0553,0.0559,0.0575,0.0559,0.056,0.0611,0.0676,0.0677,0.0686,0.0693,0.0626,0.0632,0.0619,0.0572,0.0529,0.0528,0.0527,0.0426,0.0415,0.0406,0,0,0,0,0,0,0.0539,0.0556,0.0567,0.0587,0.0578,0.0579,0.0595,0.0634,0.0642,0.0674,0.0665,0.0661,0.0627,0.0623,0.0632,0.0543,0.0586,0.0582,0.0514,0.0504,0.0496,0.0503,0.0636,0,0,0,0,0,0.0542,0.055,0.0555,0.0562,0.0566,0.0586,0.0599,0.063,0.0634,0.0649,0.0633,0.0628,0.0596,0.0577,0.0549,0.0477,0.051,0.0451,0.0443,0.0436,0.0438,0.0428,0.0418,0.0523,0.0523,0.0523,0,0,0.0537,0.0553,0.0555,0.0563,0.0564,0.0541,0.0604,0.0626,0.0612,0.0635,0.0607,0.0599,0.058,0.0509,0.0494,0.0504,0.0431,0.0435,0.0428,0.0434,0.0425,0.0415,0.0406,0.0522,0.0522,0.0522,0,0,0.0515,0.055,0.0542,0.053,0.0547,0.0548,0.0567,0.0572,0.059,0.0546,0.0572,0.0553,0.0482,0.0457,0.0438,0.0375,0.0399,0.0366,0.0303,0.0292,0.0283,0.0275,0.0329,0.0326,0.0347,0.0347,0.0347,0,0.0515,0.0501,0.0533,0.051,0.0498,0.0554,0.0522,0.0526,0.0519,0.0509,0.0535,0.0465,0.0456,0.0384,0.0357,0.0353,0.0369,0.0329,0.0278,0.0271,0.0265,0.0322,0.0321,0.0342,0.0342,0.0343,0.0343,0,0.0463,0.0458,0.045,0.043,0.0419,0.0406,0.0408,0.0406,0.0433,0.0424,0.0384,0.0363,0.0325,0.031,0.0299,0.024,0.0277,0.0277,0.0294,0.0247,0.0312,0.0312,0.0334,0.0336,0.0337,0.0339,0,0,0.0456,0.0419,0.0425,0.0382,0.0382,0.0356,0.0334,0.0308,0.0296,0.0284,0.0244,0.0194,0.0212,0.0196,0.0191,0.0168,0.0143,0.0184,0.0186,0.0225,0.0152,0.0061,0.0055,0.011,0.0109,0.0108,0.0224,0,0.0407,0.0345,0.0345,0.0266,0.0226,0.0241,0.0198,0.0189,0.019,0.0157,0.0173,0.0141,0.016,0.0141,0.0116,0.0136,0.0135,0.0115,0.0205,0.021,0.012,0.0047,0.0105,0.0225,0.0225,0.0226,0.0226,0,0.0371,0.0328,0.0264,0.0167,0.0152,0.0134,0.0088,0.0055,0.0047,0.0043,0.0034,0.0044,0.0028,0.0055,0.0076,0.0053,0.0095,0.0123,0.0127,0.0078,0.0116,0.0279,0.0228,0.0228,0.0227,0.0227,0.0227,0,0.0359,0.0268,0.0219,0.0189,0.0107,0.0099,0.0073,0.0052,0.002,0.0012,-0.0007,-0.0023,-0.0014,0.0011,0.0069,0.0062,0.0106,0.0117,0.0095,0.0094,0.0196,0.0203,0.0138,0.0137,0.0137,0.0137,0.0136,0,0.0311,0.0263,0.0225,0.0196,0.014,0.0087,0.0045,0.003,-0.0008,-0.0053,-0.0039,-0.0076,-0.0036,-0.0013,0.0048,0.0067,0.0103,0.0074,0.0088,0.0155,0.0156,0.0199,0.0204,0.0141,0.014,0.0139,0.0139,0,0.0311,0.0282,0.0223,0.0159,0.0154,0.0132,0.0068,0.001,-0.0004,-0.0052,-0.0054,-0.0099,-0.0102,-0.0041,0.001,0.0037,0.0081,0.0093,0.0199,0.0223,0.0097,0.0097,0.0068,0.0065,0.0063,0.0061,0.0059,0,0.0292,0.0286,0.0252,0.0257,0.0256,0.0209,0.0169,0.0074,0.0007,-0.0075,-0.011,-0.0139,-0.016,-0.0081,-0.0082,0.0022,0.0027,0.0092,0.004,0.0058,0.0077,0.008,0.0083,0.0055,0.0054,0.0054,0.0053,0,0.0284,0.0325,0.0278,0.0344,0.0328,0.0211,0.015,0.0102,-0.0029,-0.0075,-0.0108,-0.0114,-0.0144,-0.0125,-0.0056,0.001,0.0056,0.0066,0.0072,0.0024,0.0042,0.0064,0.007,0.0044,0.0046,0.0046,0.0047,0,0.0316,0.0322,0.0372,0.0403,0.0406,0.0317,0.0196,0.0106,0.0023,-0.0068,-0.0094,-0.0104,-0.0137,-0.0136,-0.0083,-0.0042,-0.0048,0.0013,0.0022,0.0031,-0.0059,-0.0045,-0.0075,0,0,0,0,0,0.0382,0.0431,0.044,0.0422,0.0422,0.0438,0.0254,0.0099,-0.0036,-0.0031,-0.0048,-0.0064,-0.0065,-0.0101,-0.007,-0.0182,-0.0074,-0.0153,-0.0004,-0.0003,0.0007,-0.0108,0,0,0,0,0,0,0.0414,0.0484,0.0463,0.0503,0.0535,0.0448,0.037,0.0185,0.0159,0.0073,0.0079,0.0011,0.0005,0.0007,-0.0013,-0.0032,0.007,-0.0181,-0.0181,-0.0009,0.0,0.0008,-0.0107,0,0,0,0,0]}]]